Home > Weather > Bergkamen > Past weeks

Flag for Germany Past Weather in Bergkamen, North Rhine-Westphalia, Germany — Yesterday and Last 2 Weeks

Now
88 °F

Sunny.


Feels Like: 87 °F
Forecast: 57 / 67 °F
Wind: 14 mph from Southwest

Location: Dortmund / Wickede

Current Time: Aug 28, 2016 at 12:41:19 PM

Latest Report: Aug 28, 2016 at 11:50 AM


Visibility: 10 mi

Pressure: 29.89 "Hg

Humidity: 35%

Dew Point: 57 °F

Location of BergkamenLocation

Past Weather in Bergkamen — Graph

°F

Bergkamen Temperature Yesterday

Maximum temperature yesterday: 86 °F (at 3:50 PM)
Minimum temperature yesterday: 61 °F (at 6:50 AM)
Average temperature yesterday: 75 °F

High & Low Weather Summary for the Past Weeks

 TemperatureHumidityPressure
High91 °F (Aug 25, 3:50 PM)88% (Aug 14, 5:20 AM)30.36 "Hg (Aug 14, 5:20 AM)
Low48 °F (Aug 16, 6:20 AM)16% (Aug 25, 3:50 PM)29.80 "Hg (Aug 18, 2:50 PM)
Average69 °F55%30.07 "Hg
* Reported Aug 13 11:20 AM — Aug 28 11:20 AM, Bergkamen, Weather by CustomWeather, © 2016

Note: Actual official high and low records may vary slightly from our data, if they occured in-between our weather recording intervals... More about our weather records

Advertising

Bergkamen Weather History for the Previous 24 Hours

Scroll right to see more
 ConditionsComfort  
Time TempWeatherWind HumidityBarometerVisibility
11:20 AM
Sun, Aug 28
84 °FSunny.14 mph40%29.89 "Hg10 mi
10:50 AM82 °FPassing clouds.9 mph45%29.89 "HgN/A
10:20 AM81 °FPassing clouds.8 mph48%29.92 "HgN/A
9:50 AM79 °FPassing clouds.5 mph51%29.92 "HgN/A
9:20 AM75 °FSunny.7 mph54%29.92 "Hg10 mi
8:50 AM73 °FPassing clouds.6 mph57%29.92 "HgN/A
8:20 AM70 °FSunny.9 mph69%29.92 "Hg10 mi
7:50 AM68 °FSunny.13 mph73%29.89 "Hg10 mi
7:20 AM68 °FClear.12 mph69%29.89 "Hg10 mi
6:50 AM66 °FClear.12 mph78%29.92 "Hg10 mi
6:20 AM66 °FClear.10 mph78%29.92 "Hg10 mi
5:50 AM68 °FClear.10 mph73%29.92 "Hg10 mi
5:20 AM68 °FClear.10 mph73%29.92 "Hg10 mi
9:50 PM
Sat, Aug 27
77 °FPassing clouds.8 mph47%29.95 "HgN/A
9:20 PM79 °FScattered clouds.8 mph45%29.98 "HgN/A
8:50 PM79 °FSunny.6 mph48%29.98 "Hg10 mi
8:20 PM79 °FSunny.7 mph51%29.98 "Hg10 mi
7:50 PM79 °FSunny.5 mph58%29.98 "Hg10 mi
7:20 PM81 °FPassing clouds.7 mph58%30.01 "HgN/A
6:50 PM82 °FPassing clouds.7 mph51%30.01 "HgN/A
6:20 PM82 °FPassing clouds.7 mph51%30.01 "HgN/A
5:50 PM82 °FPassing clouds.5 mph51%30.01 "HgN/A
5:20 PM82 °FPassing clouds.5 mph51%30.01 "HgN/A
4:50 PM84 °FPassing clouds.5 mph48%30.01 "HgN/A
4:20 PM84 °FPassing clouds.7 mph45%30.04 "HgN/A
3:50 PM86 °FPassing clouds.6 mph43%30.04 "HgN/A
3:20 PM84 °FPassing clouds.6 mph45%30.04 "HgN/A
2:50 PM84 °FPassing clouds.6 mph45%30.07 "HgN/A
2:20 PM82 °FPassing clouds.6 mph48%30.07 "HgN/A
1:50 PM82 °FPassing clouds.6 mph48%30.07 "HgN/A
1:20 PM81 °FPassing clouds.6 mph48%30.09 "HgN/A
12:50 PM79 °FPassing clouds.7 mph51%30.09 "HgN/A
12:20 PM79 °FPassing clouds.6 mph54%30.09 "HgN/A
Weather by CustomWeather, © 2016

See weather overviewHow to use our weather pages